Weather History for KPAH - October, 2010

Change the Weather History Date:

Tuesday, October 12, 2010

  Actual Average Record
Temperature  
Mean Temperature 68 °F 60 °F  
Max Temperature 80 °F 72 °F 89 °F (1989)
Min Temperature 56 °F 48 °F 27 °F (1987)
Degree Days  
Heating Degree Days 0 6  
Month to date heating degree days 59 62  
Since 1 July heating degree days 73 101  
Cooling Degree Days 3 1  
Month to date cooling degree days 14 23  
Year to date cooling degree days 1994 1523  
Growing Degree Days 18 (Base 50)    
Moisture  
Dew Point 55 °F    
Average Humidity 64    
Maximum Humidity 86    
Minimum Humidity 42    
Precipitation  
Precipitation 0.10 in 0.12 in 0.72 in (1962)
Month to date precipitation 0.10 1.57  
Year to date precipitation 28.84 37.80  
Snow  
Snow 0.00 in 0.00 in 0.00 in (2002)
Month to date snowfall 0.0 0.0  
Since 1 July snowfall 0.0 0.0  
Since 1 September snowfall 0.0 0.0  
Snow Depth 0.00 in    
Sea Level Pressure  
Sea Level Pressure 29.89 in    
Wind  
Wind Speed 4 mph (South)    
Max Wind Speed 32 mph    
Max Gust Speed 39 mph    
Visibility 9 miles    
Events Rain , Thunderstorm    
T = Trace of Precipitation, MM = Missing Value Source: NWS Daily Summary

Daily Weather History Graph

Daily Weather History Graph

Search for Another Location

Airport or City:

Trip Planner

Search our weather history database for the weather conditions in past years. The results will help you decide how hot, cold, wet, or windy it might be!

Date:

Astronomy

Oct. 12, 2010 Rise Set
Actual Time 7:00 AM CDT 6:22 PM CDT
Civil Twilight 6:33 AM CDT 6:48 PM CDT
Nautical Twilight 6:03 AM CDT 7:18 PM CDT
Astronomical Twilight 5:33 AM CDT 7:48 PM CDT
Moon 12:25 PM CDT (10/12) 10:06 PM CDT (10/12)
Length of Visible Light 12h 14m
Length of Day
11h 22m
Waxing Crescent, 29% of the Moon is Illuminated
Oct 12
Waxing Crescent
Oct 14
First Quarter
Oct 22
Full
Oct 30
Last Quarter
Nov 5
New

Hourly Weather History & Observations

Time (CDT) Temp. Dew Point Humidity Pressure Visibility Wind Dir Wind Speed Gust Speed Precip Events Conditions
12:53 AM 60.1 °F 53.1 °F 78% 29.85 in 10.0 mi Calm Calm - N/A   Partly Cloudy
1:53 AM 57.9 °F 53.1 °F 84% 29.85 in 9.0 mi Calm Calm - N/A   Clear
2:53 AM 59.0 °F 53.1 °F 81% 29.85 in 9.0 mi Calm Calm - N/A   Clear
3:53 AM 57.9 °F 53.1 °F 84% 29.83 in 8.0 mi Calm Calm - N/A   Clear
4:53 AM 57.0 °F 53.1 °F 87% 29.84 in 8.0 mi Calm Calm - N/A   Clear
5:53 AM 57.9 °F 52.0 °F 81% 29.85 in 8.0 mi Calm Calm - N/A   Clear
6:53 AM 63.0 °F 52.0 °F 67% 29.87 in 8.0 mi SSW 3.5 mph - N/A   Mostly Cloudy
7:53 AM 61.0 °F 52.0 °F 72% 29.88 in 6.0 mi Calm Calm - N/A   Haze
8:53 AM 63.0 °F 54.0 °F 72% 29.89 in 7.0 mi Calm Calm - N/A   Clear
9:53 AM 70.0 °F 55.0 °F 59% 29.90 in 10.0 mi WSW 5.8 mph - N/A   Clear
10:53 AM 75.9 °F 55.0 °F 48% 29.89 in 10.0 mi Variable 4.6 mph - N/A   Clear
11:53 AM 78.1 °F 55.9 °F 46% 29.89 in 10.0 mi Calm Calm - N/A   Clear
12:53 PM 78.1 °F 54.0 °F 43% 29.88 in 10.0 mi SW 6.9 mph - N/A   Clear
1:53 PM 79.0 °F 54.0 °F 42% 29.86 in 10.0 mi SW 8.1 mph - N/A   Partly Cloudy
2:53 PM 78.1 °F 55.9 °F 46% 29.86 in 10.0 mi West 5.8 mph - N/A   Mostly Cloudy
3:53 PM 78.8 °F 55.4 °F 44% 29.85 in 10.0 mi NW 4.6 mph - N/A   Clear
4:53 PM 78.1 °F 55.0 °F 45% 29.86 in 10.0 mi Calm Calm - N/A   Clear
5:53 PM 73.0 °F 55.9 °F 55% 29.86 in 10.0 mi Calm Calm - N/A   Clear
6:53 PM 70.0 °F 55.9 °F 61% 29.88 in 10.0 mi SSE 6.9 mph - N/A   Partly Cloudy
7:45 PM 68.0 °F 55.4 °F 64% 29.90 in 10.0 mi SSE 4.6 mph - N/A Thunderstorm Thunderstorm
7:53 PM 68.0 °F 55.9 °F 65% 29.89 in 10.0 mi SSE 6.9 mph - N/A Thunderstorm Thunderstorm
8:53 PM 68.0 °F 57.0 °F 68% 29.95 in 10.0 mi NNE 19.6 mph 28.8 mph N/A Thunderstorm Thunderstorm
9:53 PM 60.1 °F 57.0 °F 90% 29.98 in 8.0 mi NE 9.2 mph - 0.08 in Rain , Thunderstorm Light Thunderstorms and Rain
10:18 PM 60.8 °F 55.4 °F 82% 29.98 in 8.0 mi East 11.5 mph - 0.01 in Rain Light Rain
10:53 PM 59.0 °F 55.9 °F 90% 29.95 in 10.0 mi ESE 11.5 mph - 0.02 in Rain Light Rain
11:53 PM 60.1 °F 57.0 °F 90% 29.94 in 10.0 mi Calm Calm - 0.00 in   Mostly Cloudy